Tekamah, NE

12:54 PM CDT on August 19, 2017 (GMT -0500)
Tekamah

Weather History for KTQE - December, 2012

Change the Weather History Date:

Sunday, December 30, 2012

  Actual Average Record
Temperature  
Mean Temperature 19 °F -  
Max Temperature 37 °F 25 °F 64 °F (2004)
Min Temperature 1 °F 10 °F -11 °F (1968)
Degree Days  
Heating Degree Days 46    
Moisture  
Dew Point 10 °F    
Average Humidity 80    
Maximum Humidity 92    
Minimum Humidity 62    
Precipitation  
Precipitation 0.00 in - - ()
Sea Level Pressure  
Sea Level Pressure 30.14 in    
Wind  
Wind Speed 8 mph (South)    
Max Wind Speed 18 mph    
Max Gust Speed 28 mph    
Visibility 6 miles    
Events      
Averages and records for this station are not official NWS values.
T = Trace of Precipitation, MM = Missing Value Source: NWS Daily Summary

Daily Weather History Graph

Daily Weather History Graph

Search for Another Location

Airport or City:

Trip Planner

Search our weather history database for the weather conditions in past years. The results will help you decide how hot, cold, wet, or windy it might be!

Date:

Astronomy

Dec. 30, 2012 Rise Set
Actual Time 7:51 AM CST 5:03 PM CST
Civil Twilight 7:20 AM CST 5:34 PM CST
Nautical Twilight 6:45 AM CST 6:09 PM CST
Astronomical Twilight 6:11 AM CST 6:43 PM CST
Moon 7:38 PM CST (12/30) 8:59 AM CST (12/30)
Length of Visible Light 10h 14m
Length of Day
9h 11m
Waning Gibbous, 95% of the Moon is Illuminated
Dec 30
Waning Gibbous
Jan 4
Last Quarter
Jan 11
New
Jan 18
First Quarter
Jan 26
Full

Hourly Weather History & Observations

Time (CST) Temp. Windchill Dew Point Humidity Pressure Visibility Wind Dir Wind Speed Gust Speed Precip Events Conditions
12:33 AM 5.0 °F -5.6 °F 1.4 °F 85% 30.22 in 2.5 mi South 5.8 mph - N/A   Clear
12:54 AM 5.0 °F -2.1 °F 1.9 °F 87% 30.27 in 3.0 mi SSE 3.5 mph - N/A   Clear
1:54 AM 9.0 °F 0.6 °F 5.0 °F 84% 30.27 in 5.0 mi SSE 4.6 mph - N/A   Clear
2:54 AM 8.1 °F -3.2 °F 3.9 °F 83% 30.26 in 5.0 mi SE 6.9 mph - N/A   Clear
3:54 AM 6.1 °F -5.6 °F 1.0 °F 80% 30.25 in 4.0 mi SE 6.9 mph - N/A   Haze
4:54 AM 5.0 °F -5.6 °F 1.0 °F 84% 30.26 in 3.0 mi South 5.8 mph - N/A   Clear
5:35 AM 3.2 °F -6.2 °F -0.4 °F 85% 30.20 in 2.0 mi South 4.6 mph - N/A   Haze
5:54 AM 5.0 °F -5.6 °F 1.9 °F 87% 30.25 in 2.5 mi SSE 5.8 mph - N/A   Clear
6:13 AM 6.8 °F -3.5 °F 3.2 °F 85% 30.19 in 1.8 mi SE 5.8 mph - N/A   Clear
6:25 AM 5.0 °F -8.1 °F 3.2 °F 92% 30.19 in 2.5 mi SE 8.1 mph - N/A   Clear
6:33 AM 3.2 °F -11.3 °F -0.4 °F 85% 30.18 in 3.0 mi SE 9.2 mph - N/A   Clear
6:54 AM 3.0 °F -9.3 °F -0.0 °F 87% 30.25 in 3.0 mi SSE 6.9 mph - N/A   Clear
7:19 AM 1.4 °F -9.9 °F -2.2 °F 85% 30.17 in 2.0 mi SSE 5.8 mph - N/A   Clear
7:30 AM 3.2 °F -9.1 °F -0.4 °F 85% 30.17 in 1.2 mi SSE 6.9 mph - N/A   Clear
7:47 AM 3.2 °F -7.8 °F 1.4 °F 92% 30.17 in 2.0 mi SSE 5.8 mph - N/A   Clear
7:54 AM 6.1 °F -2.8 °F 1.9 °F 83% 30.22 in 1.8 mi South 4.6 mph - N/A   Clear
8:37 AM 8.6 °F -3.7 °F 5.0 °F 85% 30.14 in 2.0 mi SE 8.1 mph - N/A   Clear
8:54 AM 10.9 °F -2.6 °F 7.0 °F 84% 30.19 in 4.0 mi SE 10.4 mph - N/A   Clear
9:54 AM 17.1 °F 10.0 °F 14.0 °F 88% 30.16 in 5.0 mi South 4.6 mph - N/A   Clear
10:54 AM 16.0 °F - 12.0 °F 84% 30.11 in 4.0 mi Calm Calm - N/A   Clear
11:54 AM 30.0 °F 19.1 °F 23.0 °F 75% 30.05 in 10.0 mi South 15.0 mph - N/A   Clear
12:54 PM 33.1 °F 21.9 °F 25.0 °F 72% 30.00 in 10.0 mi South 18.4 mph - N/A   Clear
1:54 PM 37.0 °F 27.0 °F 27.0 °F 67% 29.96 in 10.0 mi SSW 18.4 mph 27.6 mph N/A   Clear
2:54 PM 37.9 °F 28.9 °F 26.1 °F 62% 29.96 in 10.0 mi SSW 16.1 mph - N/A   Clear
3:54 PM 36.0 °F 28.0 °F 24.1 °F 62% 29.99 in 10.0 mi SW 11.5 mph - N/A   Clear
4:54 PM 34.0 °F 23.0 °F 24.1 °F 67% 30.01 in 10.0 mi WSW 18.4 mph - N/A   Unknown
5:54 PM 30.9 °F 19.4 °F 23.0 °F 72% 30.02 in 10.0 mi WSW 17.3 mph - N/A   Clear
6:54 PM 27.0 °F 15.2 °F 19.9 °F 75% 30.06 in 10.0 mi West 15.0 mph - N/A   Clear
7:54 PM 24.1 °F 13.7 °F 17.1 °F 75% 30.09 in 10.0 mi West 10.4 mph - N/A   Clear
8:54 PM 24.1 °F 13.7 °F 16.0 °F 71% 30.10 in 10.0 mi NW 10.4 mph - N/A   Clear
9:54 PM 21.9 °F 11.7 °F 14.0 °F 72% 30.12 in 10.0 mi NW 9.2 mph - N/A   Clear
10:54 PM 19.9 °F 8.6 °F 12.0 °F 71% 30.14 in 10.0 mi NW 10.4 mph - N/A   Clear
11:54 PM 19.9 °F 8.6 °F 12.9 °F 74% 30.13 in 10.0 mi NNW 10.4 mph - N/A   Clear